Time,TemperatureF,DewpointF,PressureIn,WindDirection,WindDirectionDegrees,WindSpeedMPH,WindSpeedGustMPH,Humidity,HourlyPrecipIn,Conditions,Clouds,dailyrainin,SolarRadiationWatts/m^2,SoftwareType,DateUTC
2013-01-31 06:50:00,30.0,25.0,-100.00,South,174,5.0,8.0,82,0.00,,,-99.99,0.000000,,2013-01-31 13:50:00,
2013-01-31 07:01:00,28.0,25.0,-100.00,South,176,3.0,4.0,87,0.00,,,-99.99,0.000000,,2013-01-31 14:01:00,
2013-01-31 07:11:00,30.0,25.0,-100.00,South,174,5.0,8.0,82,0.00,,,-99.99,0.000000,,2013-01-31 14:11:00,
2013-01-31 07:21:00,30.0,25.0,-100.00,South,174,5.0,8.0,82,0.00,,,-99.99,0.000000,,2013-01-31 14:21:00,
2013-01-31 07:31:00,30.0,25.0,-100.00,South,174,5.0,8.0,82,0.00,,,-99.99,0.000000,,2013-01-31 14:31:00,
2013-01-31 07:42:00,30.0,25.0,-100.00,South,174,5.0,8.0,82,0.00,,,-99.99,0.000000,,2013-01-31 14:42:00,
2013-01-31 08:23:00,32.0,24.0,-100.00,SE,136,1.0,3.0,74,0.00,,,-99.99,19.000000,,2013-01-31 15:23:00,
2013-01-31 08:32:00,32.0,24.0,-100.00,SE,142,2.0,3.0,73,0.00,,,-99.99,35.000000,,2013-01-31 15:32:00,
2013-01-31 08:42:00,32.0,24.0,-100.00,SSE,153,3.0,4.0,72,0.00,,,-99.99,29.000000,,2013-01-31 15:42:00,
2013-01-31 08:52:00,31.0,22.0,-100.00,SE,146,4.0,5.0,70,0.00,,,-99.99,35.000000,,2013-01-31 15:52:00,
2013-01-31 09:03:00,28.0,23.0,-100.00,West,267,2.0,4.0,79,0.00,,,-99.99,31.000000,,2013-01-31 16:03:00,
2013-01-31 09:12:00,28.0,23.0,-100.00,SW,214,3.0,4.0,82,0.00,,,-99.99,39.000000,,2013-01-31 16:12:00,
2013-01-31 09:21:00,28.0,23.0,-100.00,SSW,207,2.0,3.0,81,0.00,,,-99.99,77.000000,,2013-01-31 16:21:00,
2013-01-31 09:32:00,28.0,23.0,-100.00,SSW,207,2.0,3.0,81,0.00,,,-99.99,77.000000,,2013-01-31 16:32:00,
2013-01-31 09:41:00,29.0,22.0,-100.00,SSE,164,4.0,6.0,75,0.00,,,-99.99,81.000000,,2013-01-31 16:41:00,
2013-01-31 09:51:00,29.0,22.0,-100.00,SSE,164,4.0,6.0,75,0.00,,,-99.99,81.000000,,2013-01-31 16:51:00,
2013-01-31 10:02:00,33.0,23.0,-100.00,SW,221,1.0,5.0,66,0.00,,,-99.99,144.000000,,2013-01-31 17:02:00,
2013-01-31 10:12:00,31.0,22.0,-100.00,SE,134,2.0,5.0,70,0.00,,,-99.99,143.000000,,2013-01-31 17:12:00,
2013-01-31 10:22:00,34.0,24.0,-100.00,SSE,165,1.0,3.0,65,0.00,,,-99.99,298.000000,,2013-01-31 17:22:00,
2013-01-31 10:31:00,36.0,24.0,-100.00,ESE,119,2.0,3.0,62,0.00,,,-99.99,320.000000,,2013-01-31 17:31:00,
2013-01-31 10:42:00,36.0,24.0,-100.00,ESE,119,2.0,3.0,62,0.00,,,-99.99,320.000000,,2013-01-31 17:42:00,
2013-01-31 10:53:00,38.0,25.0,-100.00,North,-999,-999.0,0.0,58,0.00,,,-99.99,360.000000,,2013-01-31 17:53:00,
2013-01-31 11:02:00,39.0,25.0,-100.00,East,93,0.0,2.0,57,0.00,,,-99.99,332.000000,,2013-01-31 18:02:00,
2013-01-31 11:12:00,36.0,25.0,-100.00,East,88,1.0,2.0,62,0.00,,,-99.99,111.000000,,2013-01-31 18:12:00,
2013-01-31 11:21:00,35.0,25.0,-100.00,SE,135,0.0,1.0,67,0.00,,,-99.99,230.000000,,2013-01-31 18:21:00,
2013-01-31 11:31:00,37.0,25.0,-100.00,SSE,154,1.0,2.0,61,0.00,,,-99.99,431.000000,,2013-01-31 18:31:00,
2013-01-31 11:42:00,38.0,25.0,-100.00,SE,126,2.0,4.0,59,0.00,,,-99.99,510.000000,,2013-01-31 18:42:00,
2013-01-31 11:50:00,40.0,26.0,-100.00,East,100,2.0,3.0,55,0.00,,,-99.99,517.000000,,2013-01-31 18:50:00,
2013-01-31 11:52:00,37.0,25.0,-100.00,ESE,114,3.0,4.0,62,0.00,,,-99.99,542.000000,,2013-01-31 18:52:00,
2013-01-31 12:01:00,39.0,26.0,-100.00,East,92,3.0,4.0,60,0.00,,,-99.99,565.000000,,2013-01-31 19:01:00,
2013-01-31 12:11:00,40.0,26.0,-100.00,East,100,2.0,3.0,55,0.00,,,-99.99,517.000000,,2013-01-31 19:11:00,
2013-01-31 12:21:00,40.0,26.0,-100.00,East,100,2.0,3.0,55,0.00,,,-99.99,517.000000,,2013-01-31 19:21:00,
2013-01-31 12:32:00,40.0,26.0,-100.00,East,100,2.0,3.0,55,0.00,,,-99.99,517.000000,,2013-01-31 19:32:00,
2013-01-31 12:42:00,40.0,26.0,-100.00,East,100,2.0,3.0,55,0.00,,,-99.99,517.000000,,2013-01-31 19:42:00,
2013-01-31 13:22:00,41.0,26.0,-100.00,ENE,77,1.0,2.0,55,0.00,,,-99.99,576.000000,,2013-01-31 20:22:00,
2013-01-31 13:32:00,41.0,26.0,-100.00,ENE,77,1.0,2.0,55,0.00,,,-99.99,576.000000,,2013-01-31 20:32:00,
2013-01-31 13:42:00,42.0,26.0,-100.00,SE,140,1.0,2.0,54,0.00,,,-99.99,715.000000,,2013-01-31 20:42:00,
2013-01-31 13:52:00,41.0,28.0,-100.00,WNW,282,2.0,4.0,60,0.00,,,-99.99,385.000000,,2013-01-31 20:52:00,
2013-01-31 14:01:00,38.0,26.0,-100.00,SSE,149,3.0,4.0,61,0.00,,,-99.99,367.000000,,2013-01-31 21:01:00,
2013-01-31 14:11:00,38.0,26.0,-100.00,WNW,299,3.0,6.0,61,0.00,,,-99.99,337.000000,,2013-01-31 21:11:00,
2013-01-31 14:21:00,40.0,26.0,-100.00,SSE,165,3.0,4.0,57,0.00,,,-99.99,292.000000,,2013-01-31 21:21:00,
2013-01-31 14:31:00,39.0,26.0,-100.00,ESE,123,4.0,5.0,60,0.00,,,-99.99,538.000000,,2013-01-31 21:31:00,
2013-01-31 14:42:00,39.0,27.0,-100.00,ESE,113,3.0,4.0,62,0.00,,,-99.99,145.000000,,2013-01-31 21:42:00,
2013-01-31 14:51:00,36.0,26.0,-100.00,WNW,292,3.0,5.0,66,0.00,,,-99.99,479.000000,,2013-01-31 21:51:00,
2013-01-31 15:02:00,39.0,26.0,-100.00,NW,304,2.0,4.0,60,0.00,,,-99.99,234.000000,,2013-01-31 22:02:00,
2013-01-31 15:11:00,40.0,27.0,-100.00,SSE,158,0.0,2.0,58,0.00,,,-99.99,144.000000,,2013-01-31 22:11:00,
2013-01-31 15:21:00,41.0,27.0,-100.00,NW,311,0.0,2.0,57,0.00,,,-99.99,400.000000,,2013-01-31 22:21:00,
2013-01-31 15:32:00,39.0,26.0,-100.00,WNW,289,1.0,3.0,59,0.00,,,-99.99,139.000000,,2013-01-31 22:32:00,
2013-01-31 15:42:00,40.0,26.0,-100.00,East,94,1.0,2.0,57,0.00,,,-99.99,97.000000,,2013-01-31 22:42:00,
2013-01-31 15:51:00,39.0,26.0,-100.00,SE,143,2.0,3.0,61,0.00,,,-99.99,112.000000,,2013-01-31 22:51:00,
2013-01-31 16:01:00,39.0,26.0,-100.00,SSE,147,2.0,3.0,59,0.00,,,-99.99,168.000000,,2013-01-31 23:01:00,
2013-01-31 16:12:00,38.0,26.0,-100.00,SE,138,1.0,2.0,61,0.00,,,-99.99,126.000000,,2013-01-31 23:12:00,
2013-01-31 16:21:00,39.0,27.0,-100.00,SE,143,2.0,3.0,60,0.00,,,-99.99,334.000000,,2013-01-31 23:21:00,
2013-01-31 16:31:00,39.0,27.0,-100.00,SE,143,2.0,3.0,60,0.00,,,-99.99,334.000000,,2013-01-31 23:31:00,
2013-01-31 16:41:00,41.0,26.0,-100.00,SSE,164,2.0,4.0,56,0.00,,,-99.99,243.000000,,2013-01-31 23:41:00,
2013-01-31 16:50:00,38.0,25.0,-100.00,South,178,3.0,4.0,59,0.00,,,-99.99,100.000000,,2013-01-31 23:50:00,
2013-01-31 16:52:00,40.0,27.0,-100.00,SSE,162,3.0,4.0,58,0.00,,,-99.99,138.000000,,2013-01-31 23:52:00,
2013-01-31 17:01:00,39.0,25.0,-100.00,South,177,3.0,3.0,58,0.00,,,-99.99,69.000000,,2013-02-01 00:01:00,
2013-01-31 17:11:00,38.0,25.0,-100.00,South,178,3.0,4.0,59,0.00,,,-99.99,100.000000,,2013-02-01 00:11:00,
2013-01-31 17:21:00,38.0,25.0,-100.00,South,178,3.0,4.0,59,0.00,,,-99.99,100.000000,,2013-02-01 00:21:00,
2013-01-31 17:31:00,38.0,25.0,-100.00,South,178,3.0,4.0,59,0.00,,,-99.99,100.000000,,2013-02-01 00:31:00,
2013-01-31 17:42:00,38.0,25.0,-100.00,South,178,3.0,4.0,59,0.00,,,-99.99,100.000000,,2013-02-01 00:42:00,
2013-01-31 18:22:00,31.0,23.0,-100.00,South,181,5.0,6.0,73,0.00,,,-99.99,1.000000,,2013-02-01 01:22:00,
2013-01-31 18:32:00,31.0,24.0,-100.00,South,174,5.0,6.0,74,0.00,,,-99.99,0.000000,,2013-02-01 01:32:00,
2013-01-31 18:42:00,31.0,23.0,-100.00,South,173,5.0,6.0,73,0.00,,,-99.99,0.000000,,2013-02-01 01:42:00,
2013-01-31 18:52:00,31.0,23.0,-100.00,SSW,204,5.0,6.0,73,0.00,,,-99.99,0.000000,,2013-02-01 01:52:00,
2013-01-31 19:01:00,30.0,23.0,-100.00,SSW,198,4.0,5.0,74,0.00,,,-99.99,0.000000,,2013-02-01 02:01:00,
2013-01-31 19:11:00,30.0,22.0,-100.00,SSW,193,3.0,4.0,74,0.00,,,-99.99,0.000000,,2013-02-01 02:11:00,
2013-01-31 19:21:00,30.0,23.0,-100.00,South,176,4.0,5.0,76,0.00,,,-99.99,0.000000,,2013-02-01 02:21:00,
2013-01-31 19:31:00,29.0,22.0,-100.00,South,178,4.0,5.0,75,0.00,,,-99.99,0.000000,,2013-02-01 02:31:00,
2013-01-31 19:41:00,28.0,22.0,-100.00,South,181,5.0,6.0,78,0.00,,,-99.99,0.000000,,2013-02-01 02:41:00,
2013-01-31 19:52:00,29.0,23.0,-100.00,South,175,4.0,5.0,76,0.00,,,-99.99,0.000000,,2013-02-01 02:52:00,
2013-01-31 20:01:00,30.0,23.0,-100.00,South,173,5.0,7.0,75,0.00,,,-99.99,0.000000,,2013-02-01 03:01:00,
2013-01-31 20:11:00,30.0,22.0,-100.00,SSE,167,4.0,6.0,73,0.00,,,-99.99,0.000000,,2013-02-01 03:11:00,
2013-01-31 20:21:00,29.0,22.0,-100.00,SSW,192,4.0,5.0,74,0.00,,,-99.99,0.000000,,2013-02-01 03:21:00,
2013-01-31 20:32:00,30.0,22.0,-100.00,SSW,194,4.0,6.0,72,0.00,,,-99.99,0.000000,,2013-02-01 03:32:00,
2013-01-31 20:41:00,31.0,23.0,-100.00,South,188,4.0,6.0,71,0.00,,,-99.99,0.000000,,2013-02-01 03:41:00,
2013-01-31 20:51:00,31.0,22.0,-100.00,SSE,165,4.0,6.0,71,0.00,,,-99.99,0.000000,,2013-02-01 03:51:00,
2013-01-31 21:02:00,30.0,22.0,-100.00,SSE,168,4.0,6.0,70,0.00,,,-99.99,0.000000,,2013-02-01 04:02:00,
2013-01-31 21:11:00,29.0,21.0,-100.00,SSE,165,3.0,4.0,72,0.00,,,-99.99,0.000000,,2013-02-01 04:11:00,
2013-01-31 21:21:00,29.0,21.0,-100.00,SSE,151,2.0,4.0,71,0.00,,,-99.99,0.000000,,2013-02-01 04:21:00,
2013-01-31 21:31:00,28.0,22.0,-100.00,SSE,161,2.0,3.0,76,0.00,,,-99.99,0.000000,,2013-02-01 04:31:00,
2013-01-31 21:41:00,29.0,21.0,-100.00,SE,140,3.0,4.0,72,0.00,,,-99.99,0.000000,,2013-02-01 04:41:00,
2013-01-31 21:50:00,30.0,22.0,-100.00,SSE,150,3.0,6.0,72,0.00,,,-99.99,0.000000,,2013-02-01 04:50:00,
2013-01-31 21:51:00,29.0,21.0,-100.00,SSE,159,3.0,4.0,72,0.00,,,-99.99,0.000000,,2013-02-01 04:51:00,
2013-01-31 22:03:00,30.0,22.0,-100.00,SE,135,3.0,4.0,72,0.00,,,-99.99,0.000000,,2013-02-01 05:03:00,
2013-01-31 22:11:00,30.0,22.0,-100.00,SSE,150,3.0,6.0,72,0.00,,,-99.99,0.000000,,2013-02-01 05:11:00,
2013-01-31 22:22:00,30.0,22.0,-100.00,SSE,150,3.0,6.0,72,0.00,,,-99.99,0.000000,,2013-02-01 05:22:00,
2013-01-31 22:31:00,30.0,22.0,-100.00,SSE,150,3.0,6.0,72,0.00,,,-99.99,0.000000,,2013-02-01 05:31:00,
2013-01-31 22:41:00,30.0,22.0,-100.00,SSE,150,3.0,6.0,72,0.00,,,-99.99,0.000000,,2013-02-01 05:41:00,
2013-01-31 23:22:00,28.0,22.0,-100.00,West,262,2.0,3.0,78,0.00,,,-99.99,0.000000,,2013-02-01 06:22:00,
2013-01-31 23:32:00,28.0,21.0,-100.00,South,181,2.0,4.0,76,0.00,,,-99.99,0.000000,,2013-02-01 06:32:00,
2013-01-31 23:42:00,26.0,20.0,-100.00,SE,143,0.0,2.0,77,0.00,,,-99.99,0.000000,,2013-02-01 06:42:00,
2013-01-31 23:52:00,25.0,19.0,-100.00,South,185,2.0,4.0,75,0.00,,,-99.99,0.000000,,2013-02-01 06:52:00,